Change the Weather History Date:

Monday, January 21, 2013

  Actual Average Record
Temperature  
Mean Temperature -2 °F -  
Max Temperature 3 °F 25 °F 50 °F (2002)
Min Temperature -7 °F 9 °F -13 °F (2014)
Degree Days  
Heating Degree Days 67    
Moisture  
Dew Point -10 °F    
Average Humidity 69    
Maximum Humidity 78    
Minimum Humidity 60    
Precipitation  
Precipitation 0.00 in - - ()
Sea Level Pressure  
Sea Level Pressure 30.34 in    
Wind  
Wind Speed 14 mph (WNW)    
Max Wind Speed 23 mph    
Max Gust Speed 29 mph    
Visibility 10 miles    
Events Snow    
Averages and records for this station are not official NWS values.
T = Trace of Precipitation, MM = Missing Value Source: NWS Daily Summary

Daily Weather History Graph

Daily Weather History Graph

Search for Another Location

Airport or City:

Trip Planner

Search our weather history database for the weather conditions in past years. The results will help you decide how hot, cold, wet, or windy it might be!

Date:

Astronomy

Jan. 21, 2013 Rise Set
Actual Time 7:48 AM CST 5:22 PM CST
Civil Twilight 7:17 AM CST 5:53 PM CST
Nautical Twilight 6:43 AM CST 6:28 PM CST
Astronomical Twilight 6:09 AM CST 7:02 PM CST
Moon 1:02 PM CST (1/21) 3:18 AM CST (1/21)
Length of Visible Light 10h 35m
Length of Day
9h 34m
Waxing Gibbous, 75% of the Moon is Illuminated
Jan 21
Waxing Gibbous
Jan 26
Full
Feb 3
Last Quarter
Feb 10
New
Feb 17
First Quarter

Hourly Weather History & Observations

Time (CST) Temp. Windchill Dew Point Humidity Pressure Visibility Wind Dir Wind Speed Gust Speed Precip Events Conditions
12:15 AM -0.4 °F -20.5 °F -7.6 °F 72% 30.34 in 10.0 mi NW 16.1 mph - N/A   Clear
12:35 AM -0.4 °F -19.9 °F -7.6 °F 72% 30.34 in 10.0 mi NW 15.0 mph 19.6 mph N/A   Clear
12:55 AM -0.4 °F -22.8 °F -7.6 °F 72% 30.33 in 10.0 mi NW 20.7 mph 26.5 mph N/A   Clear
1:15 AM -0.4 °F -22.8 °F -7.6 °F 72% 30.33 in 10.0 mi NW 20.7 mph 27.6 mph N/A   Clear
1:35 AM -0.4 °F -22.8 °F -7.6 °F 72% 30.34 in 10.0 mi NW 20.7 mph 27.6 mph N/A   Scattered Clouds
1:55 AM -0.4 °F -23.8 °F -9.4 °F 66% 30.34 in 5.0 mi NW 23.0 mph 28.8 mph N/A   Haze
2:15 AM -0.4 °F -22.8 °F -9.4 °F 66% 30.35 in 3.0 mi NNW 20.7 mph 25.3 mph N/A   Haze
2:35 AM -2.2 °F -22.9 °F -11.2 °F 66% 30.36 in 7.0 mi NNW 16.1 mph 26.5 mph N/A   Scattered Clouds
2:55 AM -2.2 °F -24.7 °F -9.4 °F 71% 30.37 in 2.0 mi NNW 19.6 mph 25.3 mph N/A Snow Light Snow
3:15 AM -2.2 °F -21.5 °F -11.2 °F 66% 30.37 in 10.0 mi NNW 13.8 mph 20.7 mph N/A   Mostly Cloudy
3:35 AM -2.2 °F -21.5 °F -11.2 °F 66% 30.37 in 10.0 mi NNW 13.8 mph - N/A   Mostly Cloudy
3:55 AM -4.0 °F -21.2 °F -13.0 °F 65% 30.37 in 10.0 mi NNW 10.4 mph 18.4 mph N/A   Overcast
4:15 AM -5.8 °F -24.4 °F -13.0 °F 71% 30.37 in 10.0 mi NW 11.5 mph - N/A   Overcast
4:35 AM -5.8 °F -25.2 °F -11.2 °F 77% 30.36 in 10.0 mi NW 12.7 mph - N/A   Overcast
4:55 AM -5.8 °F -24.4 °F -13.0 °F 71% 30.36 in 10.0 mi NW 11.5 mph - N/A   Overcast
5:15 AM -5.8 °F -22.4 °F -14.8 °F 65% 30.36 in 10.0 mi NW 9.2 mph - N/A   Overcast
5:35 AM -7.6 °F -24.6 °F -14.8 °F 71% 30.36 in 10.0 mi NW 9.2 mph - N/A   Mostly Cloudy
5:55 AM -7.6 °F -27.5 °F -14.8 °F 71% 30.36 in 10.0 mi NW 12.7 mph - N/A   Mostly Cloudy
6:15 AM -7.6 °F -28.3 °F -14.8 °F 71% 30.36 in 10.0 mi NW 13.8 mph - N/A   Scattered Clouds
6:35 AM -7.6 °F -26.6 °F -14.8 °F 71% 30.35 in 10.0 mi NW 11.5 mph 18.4 mph N/A   Clear
6:55 AM -7.6 °F -25.7 °F -16.6 °F 65% 30.36 in 10.0 mi NW 10.4 mph - N/A   Clear
7:15 AM -7.6 °F -24.6 °F -16.6 °F 65% 30.35 in 10.0 mi NW 9.2 mph - N/A   Clear
7:35 AM -7.6 °F -25.7 °F -16.6 °F 65% 30.35 in 10.0 mi NW 10.4 mph - N/A   Clear
7:55 AM -7.6 °F -25.7 °F -14.8 °F 71% 30.35 in 10.0 mi WNW 10.4 mph - N/A   Clear
8:15 AM -5.8 °F -26.0 °F -14.8 °F 65% 30.35 in 10.0 mi WNW 13.8 mph - N/A   Clear
8:35 AM -5.8 °F -26.0 °F -14.8 °F 65% 30.35 in 10.0 mi WNW 13.8 mph - N/A   Clear
8:55 AM -5.8 °F -28.2 °F -14.8 °F 65% 30.37 in 10.0 mi WNW 17.3 mph - N/A   Clear
9:15 AM -4.0 °F -25.2 °F -13.0 °F 65% 30.38 in 10.0 mi WNW 16.1 mph - N/A   Clear
9:35 AM -4.0 °F -23.0 °F -13.0 °F 65% 30.38 in 10.0 mi WNW 12.7 mph - N/A   Clear
9:55 AM -2.2 °F -22.2 °F -13.0 °F 60% 30.39 in 10.0 mi WNW 15.0 mph - N/A   Clear
10:15 AM -2.2 °F -22.2 °F -13.0 °F 60% 30.38 in 10.0 mi NW 15.0 mph - N/A   Clear
10:35 AM -2.2 °F -22.2 °F -11.2 °F 66% 30.38 in 10.0 mi NW 15.0 mph - N/A   Clear
10:55 AM -0.4 °F -19.2 °F -11.2 °F 60% 30.38 in 10.0 mi NW 13.8 mph - N/A   Clear
11:15 AM -0.4 °F -19.9 °F -11.2 °F 60% 30.38 in 10.0 mi NW 15.0 mph - N/A   Clear
11:35 AM -0.4 °F -21.7 °F -9.4 °F 66% 30.37 in 10.0 mi NW 18.4 mph - N/A   Clear
11:55 AM -0.4 °F -19.2 °F -9.4 °F 66% 30.36 in 10.0 mi NW 13.8 mph - N/A   Clear
12:15 PM -0.4 °F -18.4 °F -9.4 °F 66% 30.35 in 10.0 mi NW 12.7 mph - N/A   Clear
12:35 PM 1.4 °F -18.2 °F -9.4 °F 61% 30.34 in 10.0 mi WNW 16.1 mph - N/A   Clear
12:55 PM 1.4 °F -18.2 °F -7.6 °F 66% 30.33 in 10.0 mi WNW 16.1 mph - N/A   Clear
1:15 PM 1.4 °F -18.2 °F -7.6 °F 66% 30.33 in 10.0 mi WNW 16.1 mph 23.0 mph N/A   Clear
1:35 PM 1.4 °F -19.4 °F -7.6 °F 66% 30.32 in 10.0 mi NW 18.4 mph - N/A   Clear
1:55 PM 1.4 °F -18.8 °F -7.6 °F 66% 30.32 in 10.0 mi WNW 17.3 mph - N/A   Clear
2:15 PM 3.2 °F -15.3 °F -7.6 °F 61% 30.32 in 10.0 mi WNW 15.0 mph - N/A   Clear
2:35 PM 3.2 °F -15.9 °F -5.8 °F 66% 30.31 in 10.0 mi WNW 16.1 mph 19.6 mph N/A   Clear
2:55 PM 3.2 °F -15.9 °F -7.6 °F 61% 30.31 in 10.0 mi WNW 16.1 mph - N/A   Clear
3:15 PM 3.2 °F -14.6 °F -5.8 °F 66% 30.31 in 10.0 mi WNW 13.8 mph - N/A   Clear
3:35 PM 3.2 °F -17.6 °F -5.8 °F 66% 30.31 in 10.0 mi WNW 19.6 mph - N/A   Clear
3:55 PM 3.2 °F -15.9 °F -5.8 °F 66% 30.31 in 10.0 mi WNW 16.1 mph - N/A   Clear
4:15 PM 1.4 °F -17.6 °F -7.6 °F 66% 30.31 in 10.0 mi WNW 15.0 mph - N/A   Clear
4:35 PM 1.4 °F -16.1 °F -5.8 °F 72% 30.31 in 10.0 mi WNW 12.7 mph - N/A   Clear
4:55 PM 1.4 °F -16.1 °F -7.6 °F 66% 30.31 in 10.0 mi WNW 12.7 mph - N/A   Clear
5:15 PM 1.4 °F -14.5 °F -7.6 °F 66% 30.31 in 10.0 mi WNW 10.4 mph - N/A   Clear
5:35 PM -0.4 °F -12.0 °F -7.6 °F 72% 30.31 in 10.0 mi NW 5.8 mph - N/A   Clear
5:55 PM -2.2 °F -15.6 °F -9.4 °F 71% 30.31 in 10.0 mi WNW 6.9 mph - N/A   Clear
6:15 PM -2.2 °F -15.6 °F -9.4 °F 71% 30.31 in 10.0 mi WNW 6.9 mph - N/A   Clear
6:55 PM -2.2 °F - -9.4 °F 71% 30.31 in 10.0 mi Calm Calm - N/A   Clear
7:15 PM -2.2 °F -10.4 °F -9.4 °F 71% 30.31 in 10.0 mi West 3.5 mph - N/A   Clear
7:35 PM -5.8 °F -16.7 °F -11.2 °F 77% 30.31 in 10.0 mi West 4.6 mph - N/A   Clear
7:55 PM -5.8 °F -14.5 °F -11.2 °F 77% 30.30 in 10.0 mi West 3.5 mph - N/A   Clear
8:15 PM -4.0 °F -14.6 °F -11.2 °F 71% 30.30 in 10.0 mi WNW 4.6 mph - N/A   Clear
8:35 PM -5.8 °F -16.7 °F -11.2 °F 77% 30.30 in 10.0 mi West 4.6 mph - N/A   Clear
8:55 PM -4.0 °F -12.4 °F -9.4 °F 78% 30.30 in 10.0 mi West 3.5 mph - N/A   Clear
9:15 PM -5.8 °F -14.5 °F -11.2 °F 77% 30.31 in 10.0 mi West 3.5 mph - N/A   Clear
9:35 PM -4.0 °F -12.4 °F -9.4 °F 78% 30.31 in 10.0 mi West 3.5 mph - N/A   Clear
9:55 PM -2.2 °F - -7.6 °F 78% 30.31 in 10.0 mi Calm Calm - N/A   Clear
10:15 PM -0.4 °F - -7.6 °F 72% 30.30 in 10.0 mi Calm Calm - N/A   Clear
10:35 PM -0.4 °F - -7.6 °F 72% 30.30 in 10.0 mi Calm Calm - N/A   Clear
10:55 PM -0.4 °F -8.3 °F -7.6 °F 72% 30.30 in 10.0 mi West 3.5 mph - N/A   Clear
11:15 PM -0.4 °F - -5.8 °F 78% 30.30 in 10.0 mi Calm Calm - N/A   Clear
11:35 PM -0.4 °F -8.3 °F -5.8 °F 78% 30.30 in 10.0 mi WNW 3.5 mph - N/A   Clear
11:55 PM 1.4 °F -6.2 °F -4.0 °F 78% 30.29 in 10.0 mi WNW 3.5 mph - N/A   Clear